FW0614 Weather Reports


Display with metric or nautical units.
time (UTC)temp
F
wind
direction
speed
MPH
gust
MPH
rain 1hr
in
rain 24hr
in
rain mn
in
humidity
%
barometer
mb
20190824044004 91 118 7.0 10.0 0.00 0.25 0.25 36 1003.0
20190824043505 91 125 8.0 13.0 0.00 0.25 0.25 35 1003.0
20190824043004 92 138 8.0 12.0 0.00 0.25 0.25 34 1003.0
20190824042504 91 142 9.0 14.0 0.00 0.25 0.25 34 1003.0
20190824042004 92 127 8.0 15.0 0.00 0.25 0.25 34 1003.0
20190824041505 91 136 8.0 14.0 0.00 0.25 0.25 35 1003.0
20190824041005 90 118 8.0 10.0 0.00 0.25 0.25 36 1003.0
20190824040504 91 136 9.0 12.0 0.00 0.25 0.25 36 1003.0
20190824040004 90 146 9.0 15.0 0.00 0.25 0.25 37 1004.0
20190824035505 91 149 7.0 14.0 0.00 0.25 0.25 38 1004.0
20190824035004 90 119 10.0 14.0 0.00 0.25 0.25 38 1004.0
20190824034505 89 139 7.0 13.0 0.00 0.25 0.25 40 1004.0
20190824034005 88 139 7.0 12.0 0.00 0.25 0.25 42 1004.0
20190824033505 88 129 7.0 9.0 0.00 0.25 0.25 41 1004.0
20190824033004 89 129 7.0 9.0 0.00 0.25 0.25 40 1005.0
20190824032504 89 148 6.0 8.0 0.00 0.25 0.25 41 1005.0
20190824032005 89 148 7.0 14.0 0.00 0.25 0.25 41 1005.0
20190824031505 89 139 9.0 12.0 0.00 0.25 0.25 41 1004.0
20190824031006 89 142 7.0 12.0 0.00 0.25 0.25 41 1004.0
20190824030505 88 144 6.0 14.0 0.00 0.25 0.25 41 1004.0
20190824030005 88 154 8.0 13.0 0.00 0.25 0.25 40 1004.0
20190824025504 88 134 7.0 12.0 0.00 0.25 0.25 40 1004.0
20190824025005 89 138 6.0 12.0 0.00 0.25 0.25 40 1004.0
20190824024504 88 120 7.0 13.0 0.00 0.25 0.25 42 1005.0
20190824024004 87 133 7.0 8.0 0.00 0.25 0.25 43 1005.0
20190824023504 87 129 7.0 12.0 0.00 0.25 0.25 43 1005.0
20190824023004 88 128 7.0 9.0 0.00 0.25 0.25 43 1005.0
20190824022504 88 139 9.0 12.0 0.00 0.25 0.25 42 1005.0
20190824022005 87 134 8.0 10.0 0.00 0.25 0.25 44 1005.0
20190824021504 87 151 9.0 14.0 0.00 0.25 0.25 44 1005.0
20190824021005 87 129 9.0 14.0 0.00 0.25 0.25 45 1005.0
20190824020504 86 121 7.0 9.0 0.00 0.25 0.25 48 1005.0
20190824020004 85 128 7.0 12.0 0.00 0.25 0.25 49 1005.0
20190824015504 85 142 6.0 8.0 0.00 0.25 0.25 49 1005.0
20190824015004 86 150 6.0 10.0 0.00 0.25 0.25 46 1005.0
20190824014504 86 133 6.0 10.0 0.00 0.25 0.25 44 1005.0
20190824014004 87 129 7.0 13.0 0.00 0.25 0.25 42 1005.0
20190824013505 88 146 6.0 9.0 0.00 0.25 0.25 40 1005.0
20190824013004 89 165 6.0 10.0 0.00 0.25 0.25 40 1004.0
20190824012504 89 132 5.0 9.0 0.00 0.25 0.25 41 1004.0
20190824012005 88 138 5.0 9.0 0.00 0.25 0.25 42 1004.0
20190824011504 88 151 5.0 8.0 0.00 0.25 0.25 43 1005.0
20190824011004 88 127 5.0 7.0 0.00 0.25 0.25 44 1005.0
20190824010504 87 143 5.0 7.0 0.00 0.25 0.25 45 1005.0
20190824010005 86 156 4.0 6.0 0.00 0.25 0.25 47 1005.0
20190824005505 86 112 5.0 8.0 0.00 0.25 0.25 49 1005.0
20190824005006 86 137 5.0 7.0 0.00 0.25 0.25 50 1005.0
20190824004505 85 158 5.0 7.0 0.00 0.25 0.25 52 1005.0
20190824004004 84 192 5.0 8.0 0.00 0.25 0.25 54 1005.0
20190824003504 84 135 6.0 9.0 0.00 0.25 0.25 55 1005.0
20190824003004 83 140 6.0 9.0 0.00 0.25 0.25 55 1005.0
20190824002505 83 129 5.0 7.0 0.00 0.25 0.25 61 1005.0
20190824002004 82 131 6.0 8.0 0.00 0.25 0.25 60 1005.0
20190824001504 81 117 5.0 8.0 0.00 0.25 0.25 61 1005.0
20190824001004 81 150 6.0 12.0 0.00 0.25 0.25 61 1005.0
20190824000504 80 145 6.0 8.0 0.00 0.25 0.25 66 1005.0
20190824000004 80 129 5.0 8.0 0.00 0.25 0.25 68 1004.0
20190823235505 80 133 6.0 9.0 0.00 0.25 0.25 72 1004.0
20190823235005 80 133 6.0 10.0 0.00 0.25 0.25 76 1004.0
20190823234504 79 137 5.0 7.0 0.00 0.25 0.25 78 1004.0
20190823234006 79 183 5.0 8.0 0.00 0.25 0.25 78 1004.0
20190823233504 79 141 5.0 8.0 0.00 0.25 0.25 78 1004.0
20190823233005 79 128 6.0 8.0 0.00 0.25 0.25 78 1004.0
20190823232505 79 139 7.0 9.0 0.00 0.25 0.25 79 1004.0
20190823232005 78 137 6.0 12.0 0.08 0.25 0.25 79 1004.0
20190823231504 78 130 6.0 9.0 0.13 0.25 0.25 79 1005.0
20190823231004 78 131 7.0 9.0 0.17 0.25 0.25 79 1005.0
20190823230504 78 146 5.0 8.0 0.17 0.25 0.25 79 1005.0
20190823230005 78 141 6.0 7.0 0.21 0.25 0.25 79 1005.0
20190823225506 78 112 6.0 8.0 0.21 0.25 0.25 79 1005.0
20190823225004 78 142 5.0 7.0 0.21 0.25 0.25 79 1005.0
20190823224504 78 141 6.0 8.0 0.21 0.25 0.25 79 1005.0
20190823224005 78 143 6.0 8.0 0.21 0.25 0.25 79 1005.0
20190823223505 78 148 5.0 7.0 0.21 0.25 0.25 77 1005.0
20190823223006 77 154 5.0 6.0 0.21 0.25 0.25 76 1005.0
20190823222505 77 158 5.0 10.0 0.21 0.25 0.25 73 1005.0
20190823222004 78 155 6.0 12.0 0.13 0.17 0.17 71 1005.0
20190823221505 79 152 9.0 15.0 0.08 0.12 0.12 68 1003.0
20190823221006 81 154 7.0 14.0 0.04 0.08 0.08 71 1003.0
20190823220505 81 147 3.0 6.0 0.04 0.08 0.08 69 1003.0
20190823220005 81 153 2.0 6.0 0.00 0.04 0.04 67 1003.0
20190823215505 81 149 4.0 7.0 0.00 0.04 0.04 66 1003.0
20190823215006 81 156 5.0 9.0 0.00 0.04 0.04 65 1003.0
20190823214506 81 140 6.0 8.0 0.00 0.04 0.04 64 1003.0
20190823214005 81 156 6.0 10.0 0.00 0.04 0.04 64 1003.0
20190823213505 81 140 6.0 8.0 0.00 0.04 0.04 64 1003.0
20190823213004 81 135 6.0 8.0 0.00 0.04 0.04 62 1002.0
20190823212506 81 139 5.0 8.0 0.00 0.04 0.04 62 1002.0
20190823212004 81 142 7.0 9.0 0.00 0.04 0.04 63 1002.0
20190823211505 81 121 5.0 8.0 0.00 0.04 0.04 67 1003.0
20190823211006 81 150 5.0 8.0 0.00 0.04 0.04 66 1003.0
20190823205504 81 138 6.0 9.0 0.00 0.04 0.04 69 1004.0
20190823205004 81 125 6.0 8.0 0.00 0.04 0.04 72 1004.0
20190823204504 81 169 3.0 6.0 0.00 0.04 0.04 71 1004.0
20190823204005 81 95 3.0 8.0 0.00 0.04 0.04 71 1004.0
20190823203505 81 132 4.0 6.0 0.00 0.04 0.04 72 1004.0
20190823203005 81 137 5.0 7.0 0.00 0.04 0.04 73 1004.0
20190823202504 81 149 3.0 6.0 0.00 0.04 0.04 75 1004.0
20190823202005 80 147 4.0 7.0 0.04 0.04 0.04 77 1004.0
20190823201505 80 133 2.0 7.0 0.04 0.04 0.04 78 1003.0
20190823201004 80 115 5.0 7.0 0.04 0.04 0.04 78 1003.0
20190823200505 80 123 5.0 7.0 0.04 0.04 0.04 78 1003.0
20190823200005 80 128 4.0 7.0 0.04 0.04 0.04 78 1003.0
20190823195504 80 126 4.0 7.0 0.04 0.04 0.04 77 1003.0
20190823195004 79 141 4.0 6.0 0.04 0.04 0.04 76 1003.0
20190823194504 79 130 5.0 8.0 0.04 0.04 0.04 75 1004.0
20190823194005 79 157 6.0 10.0 0.04 0.04 0.04 74 1004.0
20190823193504 79 141 7.0 10.0 0.04 0.04 0.04 72 1004.0
20190823193006 80 138 6.0 9.0 0.04 0.04 0.04 62 1003.0
20190823192505 80 136 8.0 18.0 0.04 0.04 0.04 61 1003.0
20190823192004 84 137 8.0 18.0 0.00 0.00 0.00 52 1003.0
20190823191504 84 141 5.0 8.0 0.00 0.00 0.00 48 1003.0
20190823191005 84 142 5.0 8.0 0.00 0.00 0.00 47 1003.0
20190823190505 83 131 5.0 8.0 0.00 0.00 0.00 49 1003.0
20190823190004 83 105 6.0 8.0 0.00 0.00 0.00 48 1003.0
20190823185504 84 125 6.0 9.0 0.00 0.00 0.00 47 1003.0
20190823185005 84 132 6.0 10.0 0.00 0.00 0.00 44 1003.0
20190823184504 85 122 5.0 8.0 0.00 0.00 0.00 44 1004.0
20190823184004 84 145 7.0 10.0 0.00 0.00 0.00 43 1004.0
20190823183505 84 143 6.0 10.0 0.00 0.00 0.00 45 1004.0
20190823183004 84 158 5.0 8.0 0.00 0.00 0.00 50 1004.0
20190823182505 84 128 3.0 7.0 0.00 0.00 0.00 51 1004.0
20190823182005 84 154 3.0 8.0 0.00 0.00 0.00 52 1004.0
20190823181504 84 134 5.0 7.0 0.00 0.00 0.00 53 1005.0
20190823181005 84 138 5.0 7.0 0.00 0.00 0.00 52 1005.0
20190823180505 84 123 4.0 7.0 0.00 0.00 0.00 52 1005.0
20190823180004 84 140 5.0 8.0 0.00 0.00 0.00 50 1004.0
20190823175504 84 142 5.0 7.0 0.00 0.00 0.00 51 1004.0
20190823175005 84 133 5.0 9.0 0.00 0.00 0.00 51 1004.0
20190823174505 84 114 4.0 7.0 0.00 0.00 0.00 52 1004.0
20190823174005 84 129 4.0 8.0 0.00 0.00 0.00 50 1004.0
20190823173504 84 130 3.0 7.0 0.00 0.00 0.00 49 1004.0
20190823173004 84 144 5.0 7.0 0.00 0.00 0.00 48 1005.0
20190823172504 84 118 5.0 8.0 0.00 0.00 0.00 48 1005.0
20190823172005 84 158 4.0 9.0 0.00 0.00 0.00 48 1005.0
20190823171504 85 115 3.0 7.0 0.00 0.00 0.00 47 1005.0
20190823171005 85 134 5.0 7.0 0.00 0.00 0.00 47 1005.0
20190823170505 85 155 4.0 7.0 0.00 0.00 0.00 47 1005.0
20190823170004 85 136 3.0 8.0 0.00 0.00 0.00 46 1005.0
20190823165504 85 149 4.0 7.0 0.00 0.00 0.00 46 1005.0
20190823165005 85 160 5.0 7.0 0.00 0.00 0.00 46 1005.0
20190823164504 85 139 5.0 8.0 0.00 0.00 0.00 46 1005.0
20190823164004 85 136 5.0 9.0 0.00 0.00 0.00 45 1005.0
20190823163505 85 136 5.0 9.0 0.00 0.00 0.00 45 1005.0
20190823163005 85 149 5.0 8.0 0.00 0.00 0.00 45 1005.0
20190823162505 85 146 5.0 8.0 0.00 0.00 0.00 48 1005.0
20190823162004 85 161 3.0 6.0 0.00 0.00 0.00 51 1005.0
20190823161505 85 156 3.0 7.0 0.00 0.00 0.00 49 1005.0
20190823161005 85 133 4.0 7.0 0.00 0.00 0.00 50 1005.0
20190823160504 85 140 4.0 7.0 0.00 0.00 0.00 52 1005.0
20190823160004 85 139 5.0 7.0 0.00 0.00 0.00 56 1005.0
20190823155504 85 135 2.0 5.0 0.00 0.00 0.00 58 1005.0
20190823155005 85 112 3.0 7.0 0.00 0.00 0.00 57 1005.0
20190823154506 85 167 3.0 7.0 0.00 0.00 0.00 57 1005.0
20190823154005 85 166 4.0 7.0 0.00 0.00 0.00 56 1005.0
20190823153504 85 155 5.0 7.0 0.00 0.00 0.00 55 1005.0
20190823153004 85 140 2.0 7.0 0.00 0.00 0.00 54 1005.0
20190823152504 85 175 2.0 6.0 0.00 0.00 0.00 53 1005.0
20190823152005 85 127 5.0 7.0 0.00 0.00 0.00 53 1005.0
20190823151505 85 141 4.0 7.0 0.00 0.00 0.00 54 1005.0
20190823151005 85 110 3.0 7.0 0.00 0.00 0.00 54 1005.0
20190823150506 85 168 3.0 7.0 0.00 0.00 0.00 54 1005.0
20190823150005 85 129 3.0 7.0 0.00 0.00 0.00 57 1005.0
20190823145504 85 160 4.0 7.0 0.00 0.00 0.00 54 1005.0
20190823145004 85 175 3.0 8.0 0.00 0.00 0.00 53 1005.0
20190823144504 85 133 3.0 7.0 0.00 0.00 0.00 53 1006.0
20190823144004 85 124 5.0 7.0 0.00 0.00 0.00 53 1006.0
20190823143504 85 117 4.0 7.0 0.00 0.00 0.00 54 1006.0
20190823143004 85 124 4.0 8.0 0.00 0.00 0.00 54 1005.0
20190823142505 85 124 4.0 7.0 0.00 0.00 0.00 54 1005.0
20190823142004 85 131 3.0 7.0 0.00 0.00 0.00 52 1005.0
20190823141505 85 142 3.0 8.0 0.00 0.00 0.00 52 1006.0
20190823141004 85 126 5.0 8.0 0.00 0.00 0.00 53 1006.0
20190823140504 85 140 3.0 8.0 0.00 0.00 0.00 53 1006.0
20190823140004 85 162 3.0 7.0 0.00 0.00 0.00 52 1005.0
20190823135504 85 124 3.0 9.0 0.00 0.00 0.00 52 1005.0
20190823135005 85 202 4.0 7.0 0.00 0.00 0.00 53 1005.0
20190823134504 85 123 5.0 7.0 0.00 0.00 0.00 53 1005.0
20190823134005 85 136 3.0 6.0 0.00 0.00 0.00 55 1005.0
20190823133504 85 131 6.0 9.0 0.00 0.00 0.00 55 1005.0
20190823133005 85 131 4.0 6.0 0.00 0.00 0.00 56 1005.0
20190823132505 86 180 3.0 7.0 0.00 0.00 0.00 54 1005.0
20190823132005 86 137 4.0 8.0 0.00 0.00 0.00 52 1005.0
20190823131505 86 194 4.0 6.0 0.00 0.00 0.00 51 1006.0
20190823131004 86 122 5.0 6.0 0.00 0.00 0.00 49 1006.0
20190823130504 86 145 3.0 6.0 0.00 0.00 0.00 49 1006.0
20190823130004 86 202 3.0 5.0 0.00 0.00 0.00 50 1004.0
20190823125505 86 55 3.0 7.0 0.00 0.00 0.00 48 1004.0
20190823125005 86 193 3.0 6.0 0.00 0.00 0.00 49 1004.0
20190823124504 86 295 3.0 6.0 0.00 0.00 0.00 49 1005.0
20190823124005 86 139 3.0 6.0 0.00 0.00 0.00 49 1005.0
20190823123505 86 135 3.0 8.0 0.00 0.00 0.00 49 1005.0
20190823123005 86 147 3.0 5.0 0.00 0.00 0.00 51 1005.0
20190823122504 86 305 2.0 5.0 0.00 0.00 0.00 50 1005.0
20190823122005 86 211 2.0 6.0 0.00 0.00 0.00 50 1005.0
20190823121504 86 158 3.0 6.0 0.00 0.00 0.00 50 1004.0
20190823121004 86 143 5.0 7.0 0.00 0.00 0.00 50 1004.0
20190823120505 86 161 3.0 7.0 0.00 0.00 0.00 51 1004.0
20190823120004 86 157 3.0 9.0 0.00 0.00 0.00 50 1004.0
20190823115506 86 166 2.0 8.0 0.00 0.00 0.00 50 1004.0
20190823115005 86 142 2.0 6.0 0.00 0.00 0.00 49 1004.0
20190823114504 86 216 2.0 6.0 0.00 0.00 0.00 50 1004.0
20190823114005 86 162 2.0 5.0 0.00 0.00 0.00 51 1004.0
20190823113506 86 161 2.0 6.0 0.00 0.00 0.00 51 1004.0
20190823113005 86 179 2.0 7.0 0.00 0.00 0.00 50 1003.0
20190823112505 86 179 3.0 6.0 0.00 0.00 0.00 49 1003.0
20190823112005 87 91 3.0 5.0 0.00 0.00 0.00 49 1003.0
20190823111504 87 355 3.0 6.0 0.00 0.00 0.00 48 1004.0
20190823111004 87 183 3.0 5.0 0.00 0.00 0.00 47 1004.0
20190823110504 87 207 2.0 7.0 0.00 0.00 0.00 47 1004.0
20190823110004 87 211 3.0 6.0 0.00 0.00 0.00 46 1005.0
20190823105504 87 146 3.0 6.0 0.00 0.00 0.00 46 1005.0
20190823105005 87 193 3.0 6.0 0.00 0.00 0.00 46 1005.0
20190823104504 87 132 3.0 8.0 0.00 0.00 0.00 46 1005.0
20190823104005 87 152 3.0 6.0 0.00 0.00 0.00 46 1005.0
20190823103505 87 143 3.0 6.0 0.00 0.00 0.00 46 1005.0
20190823103005 87 35 4.0 7.0 0.00 0.00 0.00 46 1005.0
20190823102505 87 120 3.0 7.0 0.00 0.00 0.00 46 1005.0
20190823102005 87 167 3.0 6.0 0.00 0.00 0.00 45 1005.0
20190823101505 87 152 3.0 6.0 0.00 0.00 0.00 43 1005.0
20190823101005 87 155 5.0 7.0 0.00 0.00 0.00 43 1005.0
20190823100504 88 112 4.0 7.0 0.00 0.00 0.00 41 1005.0
20190823100004 88 100 4.0 7.0 0.00 0.00 0.00 40 1005.0
20190823095504 89 145 5.0 7.0 0.00 0.00 0.00 39 1005.0
20190823095005 90 125 3.0 6.0 0.00 0.00 0.00 37 1005.0
20190823094504 90 117 3.0 6.0 0.00 0.00 0.00 36 1005.0
20190823094004 91 131 4.0 6.0 0.00 0.00 0.00 34 1005.0
20190823093504 91 156 2.0 7.0 0.00 0.00 0.00 34 1005.0
20190823093004 91 114 6.0 9.0 0.00 0.00 0.00 34 1003.0
20190823092504 92 114 2.0 5.0 0.00 0.00 0.00 35 1003.0
20190823092005 91 147 3.0 6.0 0.00 0.00 0.00 35 1003.0
20190823091515 92 118 4.0 7.0 0.00 0.00 0.00 34 1003.0
20190823091005 91 158 3.0 6.0 0.00 0.00 0.00 35 1003.0
20190823090504 90 154 3.0 7.0 0.00 0.00 0.00 33 1003.0
20190823090004 91 154 3.0 7.0 0.00 0.00 0.00 32 1004.0
20190823085505 92 135 5.0 7.0 0.00 0.00 0.00 30 1004.0
20190823085005 93 126 4.0 7.0 0.00 0.00 0.00 29 1004.0
20190823084505 93 155 4.0 6.0 0.00 0.00 0.00 29 1004.0
20190823084005 94 104 3.0 6.0 0.00 0.00 0.00 29 1004.0
20190823083504 94 135 4.0 8.0 0.00 0.00 0.00 29 1004.0
20190823083005 94 96 3.0 6.0 0.00 0.00 0.00 28 1005.0
20190823082505 96 293 2.0 5.0 0.00 0.00 0.00 27 1005.0
20190823082005 96 154 3.0 6.0 0.00 0.00 0.00 27 1005.0
20190823081504 96 115 3.0 6.0 0.00 0.00 0.00 26 1005.0
20190823081005 97 174 3.0 7.0 0.00 0.00 0.00 26 1005.0
20190823080505 97 150 3.0 6.0 0.00 0.00 0.00 25 1005.0
20190823080004 98 171 3.0 6.0 0.00 0.00 0.00 23 1005.0
20190823075504 99 148 3.0 6.0 0.00 0.00 0.00 24 1005.0
20190823075005 98 158 3.0 6.0 0.00 0.00 0.00 24 1005.0
20190823074505 99 154 3.0 6.0 0.00 0.00 0.00 23 1005.0
20190823074005 99 158 2.0 7.0 0.00 0.00 0.00 23 1005.0
20190823073504 99 237 3.0 6.0 0.00 0.00 0.00 23 1005.0
20190823073005 99 292 2.0 3.0 0.00 0.00 0.00 23 1005.0
20190823072504 100 170 2.0 5.0 0.00 0.00 0.00 23 1005.0
20190823072005 99 145 4.0 6.0 0.00 0.00 0.00 23 1005.0
20190823071505 99 183 3.0 6.0 0.00 0.00 0.00 23 1005.0
20190823071005 98 198 3.0 7.0 0.00 0.00 0.00 22 1005.0
20190823070505 98 118 3.0 6.0 0.00 0.00 0.00 21 1005.0
20190823070005 99 125 3.0 6.0 0.00 0.00 0.00 21 1005.0
20190823065504 99 200 3.0 5.0 0.00 0.00 0.00 25 1005.0
20190823065004 98 164 2.0 5.0 0.00 0.00 0.00 26 1005.0
20190823064504 98 175 2.0 5.0 0.00 0.00 0.00 26 1006.0
20190823064004 97 200 3.0 7.0 0.00 0.00 0.00 27 1006.0
20190823063504 96 235 3.0 5.0 0.00 0.00 0.00 27 1006.0
20190823063004 97 228 2.0 5.0 0.00 0.00 0.00 27 1006.0
20190823062505 97 193 3.0 5.0 0.00 0.00 0.00 26 1006.0
20190823062004 98 205 2.0 5.0 0.00 0.00 0.00 24 1006.0
20190823061504 99 264 2.0 5.0 0.00 0.00 0.00 22 1006.0
20190823061006 99 188 2.0 6.0 0.00 0.00 0.00 22 1006.0
20190823060505 100 134 3.0 6.0 0.00 0.00 0.00 20 1006.0
20190823060005 101 163 3.0 6.0 0.00 0.00 0.00 19 1006.0
20190823055504 101 20 3.0 7.0 0.00 0.00 0.00 19 1006.0
20190823055004 101 38 2.0 6.0 0.00 0.00 0.00 20 1006.0
20190823054504 102 185 2.0 5.0 0.00 0.00 0.00 20 1006.0
20190823054004 102 177 2.0 7.0 0.00 0.00 0.00 20 1006.0
20190823053504 101 121 3.0 7.0 0.00 0.00 0.00 19 1006.0
20190823053005 101 175 3.0 6.0 0.00 0.00 0.00 20 1007.0
20190823052504 101 162 3.0 6.0 0.00 0.00 0.00 20 1007.0
20190823052005 100 74 3.0 6.0 0.00 0.00 0.00 21 1007.0
20190823051505 100 136 5.0 6.0 0.00 0.00 0.00 21 1007.0
20190823051005 100 163 3.0 7.0 0.00 0.00 0.00 23 1007.0
20190823050504 101 186 3.0 5.0 0.00 0.00 0.00 23 1007.0
20190823050005 100 161 3.0 6.0 0.00 0.00 0.00 25 1007.0
20190823045504 99 183 3.0 7.0 0.00 0.00 0.00 26 1007.0
20190823045005 98 202 2.0 5.0 0.00 0.00 0.00 27 1007.0
20190823044504 97 244 3.0 6.0 0.00 0.00 0.00 26 1007.0